Terminal Aerodrome Forecast
Issued by NWS Austin/San Antonio, TX

Home | Current Version | Previous Version | Text Only | Print | Product List | Glossary On
Versions: 1 2 3 4 5 6 7 8 9 10 11 12 13 14 15 16 17 18 19 20 21 22 23 24
000
FTUS44 KEWX 172300
TAFAUS
TAF
KAUS 172322Z 1800/1906 13008KT P6SM SCT060
      TEMPO 1800/1803 -TSRA BKN020CB OVC040
     FM180500 18005KT P6SM BKN020
      TEMPO 1810/1814 -TSRA BKN020CB
     FM181600 20005KT P6SM BKN040=

USA.gov is the U.S. government's official web portal to all federal, state and local government web resources and services.